Location: Unspecified
(35.6961°N, 0.0000°E)
Time: 20:46:01
(UTC+00:00)

S-56A Canister/Altair - Pass Details

Date: 31 May 2019
Orbit: 633 x 2499 km, 38.9° (Epoch: 18 June)

Event Time Altitude Azimuth Distance (km) Brightness Sun altitude
Rises 02:03:27 0° 282° (WNW) 3,295 - -25.2°
Reaches altitude 10° 02:05:34 10° 285° (WNW) 2,511 - -25.0°
Exits shadow 02:06:26 15° 286° (WNW) 2,208 9.7 -24.9°
Maximum altitude 02:11:31 74° 10° (N) 1,162 8.4 -24.3°
Drops below altitude 10° 02:20:38 10° 95° (E) 3,759 11.4 -23.2°
Sets 02:24:29 0° 98° (E) 5,052 12.1 -22.8°
